Location: Corte Bragagnani
(45.3000°N, 11.1000°E)
Time: 07:03:34
(UTC+00:00)

Abrixas rocket - Pass Details

Date: 09 April 2020
Orbit: 344 x 351 km, 48.4° (Epoch: 02 June)

Event Time Altitude Azimuth Distance (km) Brightness Sun altitude
Rises 18:16:09 0° 287° (WNW) 2,162 9.1 -4.6°
Reaches altitude 10° 18:18:12 10° 292° (WNW) 1,321 6.7 -4.9°
Maximum altitude 18:21:06 51° 10° (N) 454 2.5 -5.4°
Drops below altitude 10° 18:24:01 10° 89° (E) 1,328 4.2 -5.9°
Enters shadow 18:24:32 - 91° (E) 1,540 4.5 -6.0°
